Janesville, WI

8:01 PM CDT on May 26, 2017 (GMT -0500)
Rock County

Weather History for KJVL - December, 2013

Change the Weather History Date:

Wednesday, December 11, 2013

  Actual Average Record
Temperature  
Mean Temperature 8 °F -  
Max Temperature 17 °F 34 °F 49 °F (1987)
Min Temperature 0 °F 21 °F 0 °F (2013)
Degree Days  
Heating Degree Days 56    
Moisture  
Dew Point 1 °F    
Average Humidity 68    
Maximum Humidity 86    
Minimum Humidity 48    
Precipitation  
Precipitation 0.00 in - - ()
Sea Level Pressure  
Sea Level Pressure 30.37 in    
Wind  
Wind Speed 6 mph (West)    
Max Wind Speed 17 mph    
Max Gust Speed 22 mph    
Visibility 7 miles    
Events Snow    
Averages and records for this station are not official NWS values.
T = Trace of Precipitation, MM = Missing Value Source: NWS Daily Summary

Daily Weather History Graph

Daily Weather History Graph

Search for Another Location

Airport or City:

Trip Planner

Search our weather history database for the weather conditions in past years. The results will help you decide how hot, cold, wet, or windy it might be!

Date:

Astronomy

Dec. 11, 2013 Rise Set
Actual Time 7:16 AM CST 4:22 PM CST
Civil Twilight 6:44 AM CST 4:54 PM CST
Nautical Twilight 6:08 AM CST 5:30 PM CST
Astronomical Twilight 5:34 AM CST 6:04 PM CST
Moon 1:01 PM CST (12/11) 1:31 AM CST (12/11)
Length of Visible Light 10h 10m
Length of Day
9h 06m
Waxing Gibbous, 72% of the Moon is Illuminated
Dec 11
Waxing Gibbous
Dec 17
Full
Dec 25
Last Quarter
Jan 1
New
Jan 7
First Quarter

Hourly Weather History & Observations

Time (CST) Temp. Windchill Dew Point Humidity Pressure Visibility Wind Dir Wind Speed Gust Speed Precip Events Conditions
12:15 AM 15.8 °F 5.1 °F 10.4 °F 79% 30.24 in 10.0 mi SW 8.1 mph - N/A   Overcast
12:35 AM 15.8 °F 8.6 °F 10.4 °F 79% 30.24 in 5.0 mi WSW 4.6 mph - N/A Snow Light Snow
12:55 AM 15.8 °F 10.2 °F 10.4 °F 79% 30.24 in 4.0 mi SW 3.5 mph - N/A Snow Light Snow
1:15 AM 15.8 °F 10.2 °F 10.4 °F 79% 30.23 in 2.5 mi WSW 3.5 mph - N/A Snow Light Snow
1:35 AM 15.8 °F 10.2 °F 12.2 °F 86% 30.23 in 3.0 mi WSW 3.5 mph - N/A Snow Light Snow
1:55 AM 17.6 °F 10.7 °F 12.2 °F 79% 30.24 in 2.5 mi SW 4.6 mph - N/A Snow Light Snow
2:15 AM 17.6 °F 12.3 °F 12.2 °F 79% 30.25 in 1.5 mi WSW 3.5 mph - N/A Snow Light Snow
2:35 AM 17.6 °F 10.7 °F 12.2 °F 79% 30.25 in 1.8 mi WSW 4.6 mph - N/A Snow Light Snow
2:55 AM 17.6 °F - 12.2 °F 79% 30.24 in 1.8 mi Calm Calm - N/A Snow Light Snow
3:15 AM 17.6 °F - 12.2 °F 79% 30.24 in 1.8 mi Calm Calm - N/A Snow Light Snow
3:35 AM 17.6 °F - 12.2 °F 79% 30.23 in 1.8 mi Calm Calm - N/A Snow Light Snow
3:55 AM 17.6 °F - 12.2 °F 79% 30.24 in 3.0 mi Calm Calm - N/A Snow Light Snow
4:15 AM 17.6 °F - 12.2 °F 79% 30.24 in 3.0 mi Calm Calm - N/A Snow Light Snow
4:35 AM 17.6 °F 12.3 °F 12.2 °F 79% 30.24 in 2.5 mi WSW 3.5 mph - N/A Snow Light Snow
5:45 AM 15.8 °F 8.6 °F 12.2 °F 86% 30.28 in 2.0 mi West 4.6 mph - N/A Snow Light Snow
6:45 AM 15.8 °F 8.6 °F 12.2 °F 86% 30.30 in 5.0 mi West 4.6 mph - N/A   Overcast
7:45 AM 15.8 °F 8.6 °F 10.4 °F 79% 30.33 in 7.0 mi WNW 4.6 mph - N/A   Mostly Cloudy
8:45 AM 17.6 °F 7.3 °F 10.4 °F 73% 30.35 in 10.0 mi NW 8.1 mph - N/A   Mostly Cloudy
9:45 AM 15.8 °F -0.2 °F 6.8 °F 68% 30.39 in 10.0 mi North 17.3 mph - N/A   Overcast
10:45 AM 12.2 °F -1.8 °F -0.4 °F 57% 30.41 in 10.0 mi NW 11.5 mph 17.3 mph N/A   Clear
11:45 AM 12.2 °F -1.8 °F -2.2 °F 53% 30.41 in 10.0 mi NW 11.5 mph 17.3 mph N/A   Clear
12:45 PM 10.4 °F -5.4 °F -5.8 °F 48% 30.43 in 10.0 mi NW 13.8 mph - N/A   Clear
1:45 PM 10.4 °F -6.6 °F -5.8 °F 48% - 10.0 mi NW 16.1 mph 21.9 mph N/A   Clear
2:45 PM 10.4 °F -4.1 °F -5.8 °F 48% - 10.0 mi NW 11.5 mph - N/A   Clear
3:45 PM 8.6 °F -4.7 °F -7.6 °F 48% 30.45 in 10.0 mi WNW 9.2 mph - N/A   Clear
4:45 PM 6.8 °F -3.5 °F -9.4 °F 48% 30.48 in 10.0 mi West 5.8 mph - N/A   Clear
5:45 PM 3.2 °F -10.3 °F -9.4 °F 56% - 10.0 mi West 8.1 mph - N/A   Clear
6:45 PM 3.2 °F -11.3 °F -9.4 °F 56% - 10.0 mi West 9.2 mph - N/A   Clear
7:45 PM 1.4 °F -11.3 °F -9.4 °F 61% - 10.0 mi West 6.9 mph - N/A   Clear
8:15 PM 1.4 °F -9.9 °F -9.4 °F 61% 30.51 in 10.0 mi West 5.8 mph - N/A   Clear
8:35 PM -0.4 °F -12.0 °F -9.4 °F 66% 30.51 in 10.0 mi West 5.8 mph - N/A   Clear
8:45 PM -0.4 °F -12.0 °F -11.2 °F 60% - 10.0 mi West 5.8 mph - N/A   Clear
8:55 PM -0.4 °F -12.0 °F -9.4 °F 66% 30.51 in 10.0 mi West 5.8 mph - N/A   Clear
9:15 PM -0.4 °F -13.4 °F -9.4 °F 66% 30.51 in 10.0 mi West 6.9 mph - N/A   Clear
9:35 PM -0.4 °F -13.4 °F -9.4 °F 66% 30.52 in 10.0 mi West 6.9 mph - N/A   Clear
9:55 PM -0.4 °F -14.7 °F -9.4 °F 66% 30.52 in 10.0 mi West 8.1 mph - N/A   Clear
10:15 PM -0.4 °F -12.0 °F -9.4 °F 66% 30.52 in 10.0 mi West 5.8 mph - N/A   Clear
10:35 PM -0.4 °F -12.0 °F -9.4 °F 66% 30.52 in 10.0 mi West 5.8 mph - N/A   Clear
10:55 PM -0.4 °F -8.3 °F -9.4 °F 66% 30.52 in 10.0 mi WSW 3.5 mph - N/A   Clear
11:15 PM -0.4 °F -8.3 °F -9.4 °F 66% 30.51 in 10.0 mi WSW 3.5 mph - N/A   Clear
11:35 PM -0.4 °F -13.4 °F -9.4 °F 66% 30.51 in 10.0 mi WSW 6.9 mph - N/A   Scattered Clouds
11:55 PM -0.4 °F -10.4 °F -9.4 °F 66% 30.50 in 10.0 mi SW 4.6 mph - N/A   Scattered Clouds